Location: Mary A Oil Field
(38.5606°N, 98.9545°W)
Time: 16:20:28
(UTC+00:00)

DELTA 2 R/B (1) - Pass Details

Date: 20 January 2020
Orbit: 791 x 802 km, 39.6° (Epoch: 25 February)

Event Time Altitude Azimuth Distance (km) Brightness Sun altitude
Rises 01:37:57 0° 262° (W) 3,290 8.3 -22.3°
Reaches altitude 10° 01:40:26 10° 262° (W) 2,363 7.2 -22.7°
Maximum altitude 01:46:02 85° 351° (N) 805 3.5 -23.8°
Enters shadow 01:46:59 63° 73° (ENE) 891 3.5 -24.0°
